Regional Weather Roundup
Issued by NWS

Home | Current Version | Previous Version | Graphics & Text | Print | Product List | Glossary On
Versions: 1 2 3 4 5 6 7 8 9 10 11 12 13 14 15 16 17 18 19 20 21 22 23 24 25 26 27 28 29 30 31 32 33 34 35 36 37 38 39 40 41 42 43 44 45 46 47 48 49 50
000
ASUS45 KBOU 072310
RWRCO

WEATHER ROUNDUP FOR COLORADO
NATIONAL WEATHER SERVICE DENVER/BOULDER CO
500 PM MDT TUE JUL 07 2015

NOTE: "FAIR" INDICATES FEW OR NO CLOUDS BELOW 12000 FEET WITH NO
SIGNIFICANT WEATHER AND/OR OBSTRUCTIONS TO VISIBILITY.

COZ001>005-013-030-031-080000-
...NORTHWEST COLORADO...

CITY           SKY/WX    TMP DP  RH WIND       PRES   REMARKS
CRAIG          CLOUDY    69  52  54 CALM      30.11F
HAYDEN         CLOUDY    64  52  63 N6        30.13F
MEEKER         CLOUDY    64  53  67 SE5       30.12F
MOUNT WERNER   NOT AVBL
STEAMBOAT SPGS CLOUDY    66  52  61 NW5       30.15F
WALDEN         CLOUDY    55  50  82 NE10      30.22F
$$

COZ006>008-011-080000-
...WEST CENTRAL VALLEYS...

CITY           SKY/WX    TMP DP  RH WIND       PRES   REMARKS
GRAND JUNCTION CLOUDY    69  59  70 SE9       30.02F
MONTROSE       TSTM      62  56  80 E9        30.11R
EAGLE          PTSUNNY   66  50  55 N7        30.15F
RIFLE          CLOUDY    70  57  63 E7        30.06F
DELTA          CLOUDY    77  49  37 SW15G22   30.03F
NUCLA          CLOUDY    70  54  56 CALM      30.14S
$$

COZ017>023-064>068-080000-
...SOUTHWEST COLORADO...

CITY           SKY/WX    TMP DP  RH WIND       PRES   REMARKS
DURANGO        LGT RAIN  57  54  89 N17       30.16F
CORTEZ         MOSUNNY   70  58  65 CALM      30.09F
PAGOSA SPRINGS CLOUDY    65  50  58 E7        30.24S THUNDER
TELLURIDE      NOT AVBL
WOLF CREEK PAS NOT AVBL
$$

COZ009-010-012-014-032>034-037-058>063-080000-
...CENTRAL COLORADO...

CITY           SKY/WX    TMP DP  RH WIND       PRES   REMARKS
ASPEN          PTSUNNY   61  51  70 CALM      30.21F
BUENA VISTA    NOT AVBL
COPPER MTN     CLOUDY    52  43  71 W21       30.47F
BERTHOUD PASS  HAZE      37  30  75 E18G25    30.52F VSB<1/4
COTTONWOOD PAS NOT AVBL
GUNNISON       PTSUNNY   68  43  40 SW7       30.21F
KREMMLING      RAIN      61  52  72 SE5       30.20S
LEADVILLE      NOT AVBL
MONARCH PASS   FOG       46  45  93 NE5       30.59F VSB<1/4
SALIDA         CLOUDY    57  55  92 SE7       30.32F
SUNLIGHT       PTSUNNY   55  50  82 CALM      30.42F THUNDER
WILKERSON PASS RAIN      43  41  93 W6        30.49F
$$

COZ069>075-080000-
...SAN LUIS VALLEY/SANGRE DE CRISTO MOUNTAINS...

CITY           SKY/WX    TMP DP  RH WIND       PRES   REMARKS
ALAMOSA        CLOUDY    65  53  65 SE14      30.20F
LA VETA PASS   CLOUDY    46  45  93 MISG      30.40F
SAGUACHE       CLOUDY    54  50  87 CALM      30.25F THUNDER
$$

COZ035-036-038>040-080000-
...NORTHERN COLORADO FRONT RANGE...

CITY           SKY/WX    TMP DP  RH WIND       PRES   REMARKS
DENVER INTL AP LGT RAIN  61  54  77 S14       30.14S HAZE
DMNS CITY PARK   N/A     61  57  89 SE8G16    30.13F
AURORA         TSTM      58  57  96 S16       30.15F FOG
FRONT RANGE AP LGT RAIN  59  54  82 S12       30.15F
ERIE MUNI ARPT CLOUDY    67  58  72 SW5       30.11S HAZE
BOULDER MUN AP LGT RAIN  64  59  82 CALM      30.11F
CENTENNIAL     LGT RAIN  57  55  93 S15       30.16F FOG
BROOMFIELD     CLOUDY    64  59  82 VRB3      30.14F FOG
FORT COLLINS   CLOUDY    64  57  77 W6        30.11F
LONGMONT       LGT RAIN  66  60  79 NW3       30.12S
$$

COZ041-046-047-076>085-087-088-080000-
...PIKES PEAK/PALMER DIVIDE AND SOUTHERN FOOTHILLS...

CITY           SKY/WX    TMP DP  RH WIND       PRES   REMARKS
COLO. SPRINGS  CLOUDY    58  52  80 SW8       30.24R HAZE
A. F. ACADEMY  LGT RAIN  55  54  94 S6        30.23F FOG
ELLICOTT       CLOUDY   N/A N/A N/A S9        30.20F HAZE
FALCON         CLOUDY    55  51  86 SW8       30.27R FOG
FORT CARSON    CLOUDY    61  54  77 SW6       30.21S FOG
LIMON          CLOUDY    67  49  52 S15G22    30.17F
MONUMENT HILL  NOT AVBL
TRINIDAD       LGT RAIN  65  57  75 CALM      30.18F
$$

COZ042>045-048>051-090-091-080000-
...NORTHEAST COLORADO...

CITY           SKY/WX    TMP DP  RH WIND       PRES   REMARKS
GREELEY ARPT   CLOUDY    70  52  52 SE17G24   30.10S
AKRON          CLOUDY    71  47  42 SE20      30.13F
BURLINGTON     CLOUDY    74  42  31 S12G18    30.14S
WRAY           PTSUNNY   76  44  31 S13G18    30.12F
STERLING       CLOUDY    72  50  46 S10       30.09F
HOLYOKE        PTSUNNY   73  46  38 SE14      30.12F
FORT MORGAN    CLOUDY    71  48  44 S10       30.11S
$$

COZ086-089-092>099-080000-
...SOUTHEAST COLORADO...

CITY           SKY/WX    TMP DP  RH WIND       PRES   REMARKS
PUEBLO         CLOUDY    70  52  52 NW5       30.14S HAZE
LA JUNTA       CLOUDY    77  49  37 SE9       30.09F
LAMAR          MOSUNNY   79  45  29 SE15      30.08S HAZE
SPRINGFIELD    NOT AVBL
$$


USA.gov is the U.S. government's official web portal to all federal, state and local government web resources and services.